Year,Month,Day,Hour,Minute,Value (Times are PST for temperature in C)
2015,02,02,00,00,5.70
2015,02,02,00,01,5.70
2015,02,02,00,02,5.70
2015,02,02,00,03,5.70
2015,02,02,00,04,5.70
2015,02,02,00,05,5.70
2015,02,02,00,06,5.60
2015,02,02,00,07,5.60
2015,02,02,00,08,5.60
2015,02,02,00,09,5.60
2015,02,02,00,10,5.60
2015,02,02,00,11,5.60
2015,02,02,00,12,5.60
2015,02,02,00,13,5.60
2015,02,02,00,14,5.60
2015,02,02,00,15,5.60
2015,02,02,00,16,5.60
2015,02,02,00,17,5.60
2015,02,02,00,18,5.60
2015,02,02,00,19,5.50
2015,02,02,00,20,5.50
2015,02,02,00,21,5.50
2015,02,02,00,22,5.50
2015,02,02,00,23,5.50
2015,02,02,00,24,5.50
2015,02,02,00,25,5.50
2015,02,02,00,26,5.50
2015,02,02,00,27,5.40
2015,02,02,00,28,5.40
2015,02,02,00,29,5.40
2015,02,02,00,30,5.40
2015,02,02,00,31,5.40
2015,02,02,00,32,5.40
2015,02,02,00,33,5.40
2015,02,02,00,34,5.40
2015,02,02,00,35,5.30
2015,02,02,00,36,5.30
2015,02,02,00,37,5.30
2015,02,02,00,38,5.30
2015,02,02,00,39,5.30
2015,02,02,00,40,5.30
2015,02,02,00,41,5.30
2015,02,02,00,42,5.30
2015,02,02,00,43,5.30
2015,02,02,00,44,5.30
2015,02,02,00,45,5.30
2015,02,02,00,46,5.30
2015,02,02,00,47,5.30
2015,02,02,00,48,5.30
2015,02,02,00,49,5.30
2015,02,02,00,50,5.30
2015,02,02,00,51,5.30
2015,02,02,00,52,5.30
2015,02,02,00,53,5.30
2015,02,02,00,54,5.30
2015,02,02,00,55,5.30
2015,02,02,00,56,5.30
2015,02,02,00,57,5.30
2015,02,02,00,58,5.30
2015,02,02,00,59,5.40
2015,02,02,01,00,5.40
2015,02,02,01,01,5.40
2015,02,02,01,02,5.40
2015,02,02,01,03,5.40
2015,02,02,01,04,5.40
2015,02,02,01,05,5.40
2015,02,02,01,06,5.40
2015,02,02,01,07,5.50
2015,02,02,01,08,5.50
2015,02,02,01,09,5.50
2015,02,02,01,10,5.50
2015,02,02,01,11,5.50
2015,02,02,01,12,5.50
2015,02,02,01,13,5.50
2015,02,02,01,14,5.50
2015,02,02,01,15,5.50
2015,02,02,01,16,5.50
2015,02,02,01,17,5.50
2015,02,02,01,18,5.50
2015,02,02,01,19,5.50
2015,02,02,01,20,5.50
2015,02,02,01,21,5.50
2015,02,02,01,22,5.50
2015,02,02,01,23,5.50
2015,02,02,01,24,5.50
2015,02,02,01,25,5.50
2015,02,02,01,26,5.50
2015,02,02,01,27,5.50
2015,02,02,01,28,5.50
2015,02,02,01,29,5.50
2015,02,02,01,30,5.50
2015,02,02,08,52,6.30
2015,02,02,08,53,6.40
2015,02,02,08,54,6.50
2015,02,02,08,55,6.50
2015,02,02,08,56,6.60
2015,02,02,08,57,6.70
2015,02,02,08,58,6.70
2015,02,02,08,59,6.70
2015,02,02,09,00,6.80
2015,02,02,09,01,6.80
2015,02,02,09,02,6.90
2015,02,02,09,03,6.90
2015,02,02,09,04,6.90
2015,02,02,09,05,6.90
2015,02,02,09,06,6.80
2015,02,02,09,07,6.80
2015,02,02,09,08,6.70
2015,02,02,09,09,6.70
2015,02,02,09,10,6.70
2015,02,02,09,11,6.70
2015,02,02,09,12,6.70
2015,02,02,09,13,6.70
2015,02,02,09,14,6.70
2015,02,02,09,15,6.80
2015,02,02,09,16,6.90
2015,02,02,09,17,7.00
2015,02,02,09,18,7.00
2015,02,02,09,19,7.10
2015,02,02,09,20,7.10
2015,02,02,09,21,7.20
2015,02,02,09,22,7.20
2015,02,02,09,23,7.20
2015,02,02,09,24,7.30
2015,02,02,09,25,7.30
2015,02,02,09,26,7.30
2015,02,02,09,27,7.30
2015,02,02,09,28,7.30
2015,02,02,09,29,7.30
2015,02,02,09,30,7.30
2015,02,02,09,31,7.30
2015,02,02,09,32,7.30
2015,02,02,09,33,7.30
2015,02,02,09,34,7.30
2015,02,02,09,35,7.30
2015,02,02,09,36,7.30
2015,02,02,09,37,7.30
2015,02,02,09,38,7.40
2015,02,02,09,39,7.40
2015,02,02,09,40,7.40
2015,02,02,09,41,7.40
2015,02,02,09,42,7.40
2015,02,02,09,43,7.40
2015,02,02,09,44,7.40
2015,02,02,09,45,7.40
2015,02,02,09,46,7.40
2015,02,02,09,47,7.40
2015,02,02,09,48,7.40
2015,02,02,09,49,7.40
2015,02,02,09,50,7.40
2015,02,02,09,51,7.40
2015,02,02,09,52,7.40
2015,02,02,09,53,7.40
2015,02,02,09,54,7.40
2015,02,02,09,55,7.40
2015,02,02,09,56,7.40
2015,02,02,09,57,7.40
2015,02,02,09,58,7.40
2015,02,02,09,59,7.40
2015,02,02,10,00,7.40
2015,02,02,10,01,7.40
2015,02,02,10,02,7.40
2015,02,02,10,03,7.40
2015,02,02,10,04,7.40
2015,02,02,10,05,7.40
2015,02,02,10,06,7.40
2015,02,02,10,07,7.40
2015,02,02,10,08,7.40
2015,02,02,10,09,7.40
2015,02,02,10,10,7.40
2015,02,02,10,11,7.40
2015,02,02,10,12,7.40
2015,02,02,10,13,7.40
2015,02,02,10,14,7.40
2015,02,02,10,15,7.40
2015,02,02,10,16,7.50
2015,02,02,10,17,7.50
2015,02,02,10,18,7.50
2015,02,02,10,19,7.60
2015,02,02,10,20,7.60
2015,02,02,10,21,7.60
2015,02,02,10,22,7.60
2015,02,02,10,23,7.60
2015,02,02,10,24,7.60
2015,02,02,10,25,7.60
2015,02,02,10,26,7.60
2015,02,02,10,27,7.60
2015,02,02,10,28,7.70
2015,02,02,10,29,7.70
2015,02,02,10,30,7.70
2015,02,02,10,31,7.70
2015,02,02,10,32,7.70
2015,02,02,10,33,7.70
2015,02,02,10,34,7.70
2015,02,02,10,35,7.80
2015,02,02,10,36,7.80
2015,02,02,10,37,7.80
2015,02,02,10,38,7.80
2015,02,02,10,39,7.90
2015,02,02,10,40,7.90
2015,02,02,10,41,7.90
2015,02,02,10,42,7.90
2015,02,02,10,43,7.90
2015,02,02,10,44,7.90
2015,02,02,10,45,7.90
2015,02,02,10,46,7.90
2015,02,02,10,47,7.90
2015,02,02,10,48,8.00
2015,02,02,10,49,8.00
2015,02,02,10,50,8.00
2015,02,02,10,51,8.00
2015,02,02,10,52,8.10
2015,02,02,10,53,8.10
2015,02,02,10,54,8.10
2015,02,02,10,55,8.10
2015,02,02,10,56,8.10
2015,02,02,10,57,8.10
2015,02,02,10,58,8.10
2015,02,02,10,59,8.00
2015,02,02,11,00,8.00
2015,02,02,11,01,7.90
2015,02,02,11,02,7.90
2015,02,02,11,03,7.90
2015,02,02,11,04,7.90
2015,02,02,11,05,7.90
2015,02,02,11,06,7.90
2015,02,02,11,07,7.90
2015,02,02,11,08,7.90
2015,02,02,11,09,8.00
2015,02,02,11,10,8.00
2015,02,02,11,11,8.00
2015,02,02,11,12,8.00
2015,02,02,11,13,8.00
2015,02,02,11,14,8.00
2015,02,02,11,15,8.00
2015,02,02,11,16,8.00
2015,02,02,11,17,8.00
2015,02,02,11,18,8.00
2015,02,02,11,19,8.00
2015,02,02,11,20,8.00
2015,02,02,11,21,8.00
2015,02,02,11,22,8.00
2015,02,02,11,23,8.00
2015,02,02,11,24,8.00
2015,02,02,11,25,8.00
2015,02,02,11,26,8.00
2015,02,02,11,27,8.00
2015,02,02,11,28,8.00
2015,02,02,11,29,8.10
2015,02,02,11,30,8.10
2015,02,02,11,31,8.10
2015,02,02,11,32,8.10
2015,02,02,11,33,8.10
2015,02,02,11,34,8.00
2015,02,02,11,35,8.00
2015,02,02,11,36,8.00
2015,02,02,11,37,8.00
2015,02,02,11,38,8.00
2015,02,02,11,39,8.00
2015,02,02,11,40,8.00
2015,02,02,11,41,8.00
2015,02,02,11,42,7.90
2015,02,02,11,43,7.90
2015,02,02,11,44,8.00
2015,02,02,11,45,8.00
2015,02,02,11,46,8.10
2015,02,02,11,47,8.10
2015,02,02,11,48,8.10
2015,02,02,11,49,8.10
2015,02,02,11,50,8.10
2015,02,02,11,51,8.00
2015,02,02,11,52,8.00
2015,02,02,11,53,8.00
2015,02,02,11,54,7.90
2015,02,02,11,55,8.00
2015,02,02,11,56,8.00
2015,02,02,11,57,8.00
2015,02,02,11,58,8.00
2015,02,02,11,59,8.00
2015,02,02,12,00,8.00
2015,02,02,12,01,8.00
2015,02,02,12,02,8.00
2015,02,02,12,03,8.00
2015,02,02,12,04,8.00
2015,02,02,12,05,8.10
2015,02,02,12,06,8.10
2015,02,02,12,07,8.10
2015,02,02,12,08,8.10
2015,02,02,12,09,8.10
2015,02,02,12,10,8.10
2015,02,02,12,11,8.10
2015,02,02,12,12,8.10
2015,02,02,12,13,8.00
2015,02,02,12,14,8.00
2015,02,02,12,15,8.00
2015,02,02,12,16,8.00
2015,02,02,12,17,8.00
2015,02,02,12,18,8.00
2015,02,02,12,19,8.00
2015,02,02,12,20,8.00
2015,02,02,12,21,8.00
2015,02,02,12,22,8.00
2015,02,02,12,23,8.00
2015,02,02,12,24,8.00
2015,02,02,12,25,8.00
2015,02,02,12,26,8.00
2015,02,02,12,27,8.00
2015,02,02,12,28,8.00
2015,02,02,12,29,8.10
2015,02,02,12,30,8.10
2015,02,02,12,31,8.10
2015,02,02,12,32,8.10
2015,02,02,12,33,8.10
2015,02,02,12,34,8.10
2015,02,02,12,35,8.20
2015,02,02,12,36,8.20
2015,02,02,12,37,8.20
2015,02,02,12,38,8.20
2015,02,02,12,39,8.20
2015,02,02,12,40,8.20
2015,02,02,12,41,8.20
2015,02,02,12,42,8.20
2015,02,02,12,43,8.20
2015,02,02,12,44,8.20
2015,02,02,12,45,8.20
2015,02,02,12,46,8.20
2015,02,02,12,47,8.20
2015,02,02,12,48,8.30
2015,02,02,12,49,8.30
2015,02,02,12,50,8.30
2015,02,02,12,51,8.30
2015,02,02,12,52,8.30
2015,02,02,12,53,8.30
2015,02,02,12,54,8.30
2015,02,02,12,55,8.30
2015,02,02,12,56,8.30
2015,02,02,12,57,8.30
2015,02,02,12,58,8.30
2015,02,02,12,59,8.30
2015,02,02,13,00,8.30
2015,02,02,13,01,8.30
2015,02,02,13,02,8.30
2015,02,02,13,03,8.40
2015,02,02,13,04,8.40
2015,02,02,13,05,8.30
2015,02,02,13,06,8.30
2015,02,02,13,07,8.30
2015,02,02,13,08,8.30
2015,02,02,13,09,8.30
2015,02,02,13,10,8.30
2015,02,02,13,11,8.30
2015,02,02,13,12,8.30
2015,02,02,13,13,8.30
2015,02,02,13,14,8.30
2015,02,02,13,15,8.30
2015,02,02,13,16,8.30
2015,02,02,13,17,8.30
2015,02,02,13,18,8.40
2015,02,02,13,19,8.40
2015,02,02,13,20,8.40
2015,02,02,13,21,8.50
2015,02,02,13,22,8.50
2015,02,02,13,23,8.60
2015,02,02,13,24,8.60
2015,02,02,13,25,8.70
2015,02,02,13,26,8.70
2015,02,02,13,27,8.70
2015,02,02,13,28,8.70
2015,02,02,13,29,8.80
2015,02,02,13,30,8.80
2015,02,02,13,31,8.80
2015,02,02,13,32,8.80
2015,02,02,13,33,8.80
2015,02,02,13,34,8.90
2015,02,02,13,35,8.90
2015,02,02,13,36,8.90
2015,02,02,13,37,8.90
2015,02,02,13,38,8.90
2015,02,02,13,39,8.90
2015,02,02,13,40,8.90
2015,02,02,13,41,8.90
2015,02,02,13,42,8.90
2015,02,02,13,43,8.90
2015,02,02,13,44,9.00
2015,02,02,13,45,9.00
2015,02,02,13,46,9.10
2015,02,02,13,47,9.10
2015,02,02,13,48,9.10
2015,02,02,13,49,9.00
2015,02,02,13,50,9.00
2015,02,02,13,51,9.00
2015,02,02,13,52,9.00
2015,02,02,13,53,9.10
2015,02,02,13,54,9.10
2015,02,02,13,55,9.10
2015,02,02,13,56,9.10
2015,02,02,13,57,9.10
2015,02,02,13,58,9.10
2015,02,02,13,59,9.10
2015,02,02,14,00,9.00
2015,02,02,14,01,8.90
2015,02,02,14,02,8.90
2015,02,02,14,03,8.90
2015,02,02,14,04,8.90
2015,02,02,14,05,8.80
2015,02,02,14,06,8.80
2015,02,02,14,07,8.80
2015,02,02,14,08,8.80
2015,02,02,14,09,8.80
2015,02,02,14,10,8.80
2015,02,02,14,11,8.80
2015,02,02,14,12,8.80
2015,02,02,14,13,8.80
2015,02,02,14,14,8.80
2015,02,02,14,15,8.80
2015,02,02,14,16,8.80
2015,02,02,14,17,8.80
2015,02,02,14,18,8.80
2015,02,02,14,19,8.80
2015,02,02,14,20,8.80
2015,02,02,14,21,8.90
2015,02,02,14,22,8.90
2015,02,02,14,23,8.90
2015,02,02,14,24,8.90
2015,02,02,14,25,8.90
2015,02,02,14,26,8.90
2015,02,02,14,27,8.90
2015,02,02,14,28,8.90
2015,02,02,14,29,8.90
2015,02,02,14,30,8.90
2015,02,02,14,31,8.90
2015,02,02,14,32,8.90
2015,02,02,14,33,8.90
2015,02,02,14,34,9.00
2015,02,02,14,35,9.00
2015,02,02,14,36,9.00
2015,02,02,14,37,8.90
2015,02,02,14,38,8.90
2015,02,02,14,39,8.90
2015,02,02,14,40,8.90
2015,02,02,14,41,8.80
2015,02,02,14,42,8.80
2015,02,02,14,43,8.80
2015,02,02,14,44,8.80
2015,02,02,14,45,8.70
2015,02,02,14,46,8.70
2015,02,02,14,47,8.70
2015,02,02,14,48,8.60
2015,02,02,14,49,8.60
2015,02,02,14,50,8.60
2015,02,02,14,51,8.60
2015,02,02,14,52,8.60
2015,02,02,14,53,8.50
2015,02,02,14,54,8.50
2015,02,02,14,55,8.50
2015,02,02,14,56,8.50
2015,02,02,14,57,8.50
2015,02,02,14,58,8.50
2015,02,02,14,59,8.50
2015,02,02,15,00,8.50
2015,02,02,15,01,8.60
2015,02,02,15,02,8.60
2015,02,02,15,03,8.60
2015,02,02,15,04,8.60
2015,02,02,15,05,8.60
2015,02,02,15,06,8.60
2015,02,02,15,07,8.60
2015,02,02,15,08,8.60
2015,02,02,15,09,8.60
2015,02,02,15,10,8.60
2015,02,02,15,11,8.60
2015,02,02,15,12,8.60
2015,02,02,15,13,8.60
2015,02,02,15,14,8.60
2015,02,02,15,15,8.60
2015,02,02,15,16,8.50
2015,02,02,15,17,8.50
2015,02,02,15,18,8.40
2015,02,02,15,19,8.40
2015,02,02,15,20,8.40
2015,02,02,15,21,8.40
2015,02,02,15,22,8.40
2015,02,02,15,23,8.40
2015,02,02,15,24,8.40
2015,02,02,15,25,8.40
2015,02,02,15,26,8.40
2015,02,02,15,27,8.40
2015,02,02,15,28,8.40
2015,02,02,15,29,8.40
2015,02,02,15,30,8.40
2015,02,02,15,31,8.30
2015,02,02,15,32,8.30
2015,02,02,15,33,8.30
2015,02,02,15,34,8.30
2015,02,02,15,35,8.30
2015,02,02,15,36,8.30
2015,02,02,15,37,8.30
2015,02,02,15,38,8.30
2015,02,02,15,39,8.30
2015,02,02,15,40,8.30
2015,02,02,15,41,8.30
2015,02,02,15,42,8.30
2015,02,02,15,43,8.30
2015,02,02,15,44,8.30
2015,02,02,15,45,8.30
2015,02,02,15,46,8.40
2015,02,02,15,47,8.40
2015,02,02,15,48,8.40
2015,02,02,15,49,8.40
2015,02,02,15,50,8.40
2015,02,02,15,51,8.50
2015,02,02,15,52,8.50
2015,02,02,15,53,8.50
2015,02,02,15,54,8.40
2015,02,02,15,55,8.40
2015,02,02,15,56,8.40
2015,02,02,15,57,8.40
2015,02,02,15,58,8.40
2015,02,02,15,59,8.40
2015,02,02,16,00,8.40
2015,02,02,16,01,8.40
2015,02,02,16,02,8.30
2015,02,02,16,03,8.30
2015,02,02,16,04,8.30
2015,02,02,16,05,8.30
2015,02,02,16,06,8.30
2015,02,02,16,07,8.30
2015,02,02,16,08,8.30
2015,02,02,16,09,8.30
2015,02,02,16,10,8.30
2015,02,02,16,11,8.30
2015,02,02,16,12,8.20
2015,02,02,16,13,8.20
2015,02,02,16,14,8.20
2015,02,02,16,15,8.20
2015,02,02,16,16,8.20
2015,02,02,16,17,8.20
2015,02,02,16,18,8.20
2015,02,02,16,19,8.20
2015,02,02,16,20,8.20
2015,02,02,16,21,8.20
2015,02,02,16,22,8.20
2015,02,02,16,23,8.20
2015,02,02,16,24,8.20
2015,02,02,16,25,8.20
2015,02,02,16,26,8.20
2015,02,02,16,27,8.20
2015,02,02,16,28,8.20
2015,02,02,16,29,8.20
2015,02,02,16,30,8.20
2015,02,02,16,31,8.20
2015,02,02,16,32,8.20
2015,02,02,16,33,8.10
2015,02,02,16,34,8.10
2015,02,02,16,35,8.10
2015,02,02,16,36,8.10
2015,02,02,16,37,8.10
2015,02,02,16,38,8.10
2015,02,02,16,39,8.10
2015,02,02,16,40,8.10
2015,02,02,16,41,8.00
2015,02,02,16,42,8.00
2015,02,02,16,43,8.00
2015,02,02,16,44,7.90
2015,02,02,16,45,7.90
2015,02,02,16,46,7.90
2015,02,02,16,47,7.90
2015,02,02,16,48,7.90
2015,02,02,16,49,7.90
2015,02,02,16,50,7.80
2015,02,02,16,51,7.80
2015,02,02,16,52,7.80
2015,02,02,16,53,7.80
2015,02,02,16,54,7.80
2015,02,02,16,55,7.80
2015,02,02,16,56,7.70
2015,02,02,16,57,7.70
2015,02,02,16,58,7.70
2015,02,02,16,59,7.70
2015,02,02,17,00,7.70
2015,02,02,17,01,7.70
2015,02,02,17,02,7.70
2015,02,02,17,03,7.70
2015,02,02,17,04,7.70
2015,02,02,17,05,7.70
2015,02,02,17,06,7.70
2015,02,02,17,07,7.70
2015,02,02,17,08,7.70
2015,02,02,17,09,7.70
2015,02,02,17,10,7.70
2015,02,02,17,11,7.70
2015,02,02,17,12,7.70
2015,02,02,17,13,7.70
2015,02,02,17,14,7.70
2015,02,02,17,15,7.70
2015,02,02,17,16,7.70
2015,02,02,17,17,7.70
2015,02,02,17,18,7.70
2015,02,02,17,19,7.70
2015,02,02,17,20,7.70
2015,02,02,17,21,7.70
2015,02,02,17,22,7.70
2015,02,02,17,23,7.70
2015,02,02,17,24,7.70
2015,02,02,17,25,7.70
2015,02,02,17,26,7.70
2015,02,02,17,27,7.70
2015,02,02,17,28,7.70
2015,02,02,17,29,7.70
2015,02,02,17,30,7.70
2015,02,02,17,31,7.70
2015,02,02,17,32,7.70
2015,02,02,17,33,7.70
2015,02,02,17,34,7.70
2015,02,02,17,35,7.70
2015,02,02,17,36,7.70
2015,02,02,17,37,7.70
2015,02,02,17,38,7.60
2015,02,02,17,39,7.60
2015,02,02,17,40,7.70
2015,02,02,17,41,7.60
2015,02,02,17,42,7.60
2015,02,02,17,43,7.60
2015,02,02,17,44,7.60
2015,02,02,17,45,7.60
2015,02,02,17,46,7.60
2015,02,02,17,47,7.60
2015,02,02,17,48,7.60
2015,02,02,17,49,7.60
2015,02,02,17,50,7.60
2015,02,02,17,51,7.60
2015,02,02,17,52,7.60
2015,02,02,17,53,7.60
2015,02,02,17,54,7.60
2015,02,02,17,55,7.60
2015,02,02,17,56,7.50
2015,02,02,17,57,7.50
2015,02,02,17,58,7.50
2015,02,02,17,59,7.50
2015,02,02,18,00,7.50
2015,02,02,18,01,7.50
2015,02,02,18,02,7.50
2015,02,02,18,03,7.50
2015,02,02,18,04,7.40
2015,02,02,18,05,7.40
2015,02,02,18,06,7.40
2015,02,02,18,07,7.40
2015,02,02,18,08,7.40
2015,02,02,18,09,7.40
2015,02,02,18,10,7.50
2015,02,02,18,11,7.40
2015,02,02,18,12,7.50
2015,02,02,18,13,7.50
2015,02,02,18,14,7.50
2015,02,02,18,15,7.50
2015,02,02,18,16,7.50
2015,02,02,18,17,7.40
2015,02,02,18,18,7.40
2015,02,02,18,19,7.40
2015,02,02,18,20,7.40
2015,02,02,18,21,7.40
2015,02,02,18,22,7.40
2015,02,02,18,23,7.40
2015,02,02,18,24,7.40
2015,02,02,18,25,7.40
2015,02,02,18,26,7.40
2015,02,02,18,27,7.40
2015,02,02,18,28,7.40
2015,02,02,18,29,7.40
2015,02,02,18,30,7.30
2015,02,02,18,31,7.30
2015,02,02,18,32,7.30
2015,02,02,18,33,7.30
2015,02,02,18,34,7.30
2015,02,02,18,35,7.30
2015,02,02,18,36,7.30
2015,02,02,18,37,7.30
2015,02,02,18,38,7.30
2015,02,02,18,39,7.30
2015,02,02,18,40,7.30
2015,02,02,18,41,7.20
2015,02,02,18,42,7.20
2015,02,02,18,43,7.20
2015,02,02,18,44,7.20
2015,02,02,18,45,7.20
2015,02,02,18,46,7.20
2015,02,02,18,47,7.20
2015,02,02,18,48,7.20
2015,02,02,18,49,7.10
2015,02,02,18,50,7.10
2015,02,02,18,51,7.10
2015,02,02,18,52,7.10
2015,02,02,18,53,7.10
2015,02,02,18,54,7.00
2015,02,02,18,55,7.00
2015,02,02,18,56,7.00
2015,02,02,18,57,7.00
2015,02,02,18,58,7.00
2015,02,02,18,59,7.00
2015,02,02,19,00,6.90
2015,02,02,19,01,6.90
2015,02,02,19,02,6.90
2015,02,02,19,03,6.90
2015,02,02,19,04,6.90
2015,02,02,19,05,6.90
2015,02,02,19,06,6.90
2015,02,02,19,07,6.80
2015,02,02,19,08,6.80
2015,02,02,19,09,6.80
2015,02,02,19,10,6.80
2015,02,02,19,11,6.80
2015,02,02,19,12,6.90
2015,02,02,19,13,6.90
2015,02,02,19,14,6.90
2015,02,02,19,15,6.90
2015,02,02,19,16,6.90
2015,02,02,19,17,6.90
2015,02,02,19,18,6.90
2015,02,02,19,19,6.90
2015,02,02,19,20,6.90
2015,02,02,19,21,6.90
2015,02,02,19,22,6.90
2015,02,02,19,23,6.90
2015,02,02,19,24,6.90
2015,02,02,19,25,6.90
2015,02,02,19,26,6.90
2015,02,02,19,27,6.90
2015,02,02,19,28,6.90
2015,02,02,19,29,6.90
2015,02,02,19,30,6.90
2015,02,02,19,31,7.00
2015,02,02,19,32,7.00
2015,02,02,19,33,7.00
2015,02,02,19,34,7.00
2015,02,02,19,35,7.00
2015,02,02,19,36,7.00
2015,02,02,19,37,6.90
2015,02,02,19,38,6.90
2015,02,02,19,39,6.90
2015,02,02,19,40,6.80
2015,02,02,19,41,6.80
2015,02,02,19,42,6.80
2015,02,02,19,43,6.80
2015,02,02,19,44,6.80
2015,02,02,19,45,6.80
2015,02,02,19,46,6.80
2015,02,02,19,47,6.80
2015,02,02,19,48,6.90
2015,02,02,19,49,6.90
2015,02,02,19,50,6.90
2015,02,02,19,51,6.90
2015,02,02,19,52,6.90
2015,02,02,19,53,6.90
2015,02,02,19,54,6.90
2015,02,02,19,55,6.90
2015,02,02,19,56,6.90
2015,02,02,19,57,7.00
2015,02,02,19,58,7.00
2015,02,02,19,59,7.00
2015,02,02,20,00,7.00
2015,02,02,20,01,7.00
2015,02,02,20,02,7.00
2015,02,02,20,03,7.00
2015,02,02,20,04,6.90
2015,02,02,20,05,6.90
2015,02,02,20,06,6.90
2015,02,02,20,07,6.90
2015,02,02,20,08,6.90
2015,02,02,20,09,6.80
2015,02,02,20,10,6.80
2015,02,02,20,11,6.80
2015,02,02,20,12,6.80
2015,02,02,20,13,6.70
2015,02,02,20,14,6.70
2015,02,02,20,15,6.70
2015,02,02,20,16,6.70
2015,02,02,20,17,6.70
2015,02,02,20,18,6.70
2015,02,02,20,19,6.70
2015,02,02,20,20,6.70
2015,02,02,20,21,6.70
2015,02,02,20,22,6.70
2015,02,02,20,23,6.70
2015,02,02,20,24,6.70
2015,02,02,20,25,6.70
2015,02,02,20,26,6.80
2015,02,02,20,27,6.80
2015,02,02,20,28,6.80
2015,02,02,20,29,6.80
2015,02,02,20,30,6.80
2015,02,02,20,31,6.80
2015,02,02,20,32,6.70
2015,02,02,20,33,6.70
2015,02,02,20,34,6.60
2015,02,02,20,35,6.60
2015,02,02,20,36,6.50
2015,02,02,20,37,6.40
2015,02,02,20,38,6.40
2015,02,02,20,39,6.40
2015,02,02,20,40,6.40
2015,02,02,20,41,6.40
2015,02,02,20,42,6.40
2015,02,02,20,43,6.40
2015,02,02,20,44,6.50
2015,02,02,20,45,6.50
2015,02,02,20,46,6.50
2015,02,02,20,47,6.50
2015,02,02,20,48,6.50
2015,02,02,20,49,6.60
2015,02,02,20,50,6.60
2015,02,02,20,51,6.60
2015,02,02,20,52,6.60
2015,02,02,20,53,6.60
2015,02,02,20,54,6.60
2015,02,02,20,55,6.60
2015,02,02,20,56,6.60
2015,02,02,20,57,6.60
2015,02,02,20,58,6.60
2015,02,02,20,59,6.60
2015,02,02,21,00,6.60
2015,02,02,21,01,6.60
2015,02,02,21,02,6.60
